User: anonymous   Login
Location: Muenchen
(48.1800°N, 11.5800°E)
Time: 15:55:47
(UTC+02:00)
Language:

ISS - Orbit

View from above orbital plane
View from above orbital plane
View from above satellite
View from above satellite

Ground track
Ground track

The orbit data is extracted from the following two-line orbital elements,

1 25544U 98067A   17113.43831534  .00016717  00000-0  10270-3 0  9023
2 25544  51.6406 311.2001 0006768  81.9828 278.2092 15.54157302 13237
Epoch (UTC): 23 April 2017 10:31:10
Eccentricity: 0.0006768
inclination: 51.6406°
perigee height: 400 km
apogee height: 409 km
right ascension of ascending node: 311.2001°
argument of perigee: 81.9828°
revolutions per day: 15.54157302
mean anomaly at epoch: 278.2092°
orbit number at epoch: 1323

The dashed part of the orbit path shows where the satellite is in the earth's shadow,  

DLR